Temp
9 10 9 10 11 10 11 12 11 11 12 12 12 12 12 12 11 11 11 11 11 11
9 9 9 9 10 10 9 10 11 11 11 11 12 12 11 11 11 10 10 10 10 10
9 9 9 9 9 9 10 10 10 10 10 11 11 11 11 11 10 10 10 10 9 9
9 9 9 9 9 9 10 10 10 9 9 10 10 10 10 10 10 9 9 8 8 8
9 9 9 9 9 10 9 9 10 10 10 10 9 10 9 9 9 9 8 8 8 8
10 9 10 9 9 9 9 9 9 9 9 9 9 9 9 9 8 8 8 8 8 8
10 10 9 9 9 9 10 10 9 9 9 9 9 8 8 8 8 8 8 8 8 7
9 9 9 9 9 9 9 9 9 9 9 9 8 8 8 8 8 8 7 7 7 7
9 9 9 9 9 8 9 9 8 8 8 8 8 8 8 8 8 7 7 7 7 7
9 9 9 9 9 8 8 8 8 8 8 8 8 8 7 7 7 7 7 7 6 6
9 8 8 8 8 8 8 8 8 7 7 7 7 7 7 7 7 6 6 6 6 5
8 8 8 8 8 7 7 7 7 7 7 7 7 7 6 6 6 6 5 5 5 5
7 7 7 7 7 7 7 7 7 7 6 6 6 6 6 5 5 5 4 4 3 3
7 7 7 6 6 5 5 5 5 5 4 4 4 4 4 4 4 4 4 3 2 2
Height
771 772 778 780 785 787 788 791 799 805 807 811 813 813 816 818 825 826 827 826 832 834
769 771 776 780 783 787 791 792 800 804 806 809 811 812 814 816 820 825 825 827 830 835
766 770 775 777 780 785 788 792 798 800 803 805 809 809 811 813 820 824 823 826 828 830
767 770 773 774 778 784 788 791 793 797 801 803 803 805 809 813 817 821 823 825 824 828
767 768 769 771 777 784 786 788 793 796 798 798 800 804 807 813 815 817 819 822 823 825
762 765 766 770 775 778 783 787 790 795 796 796 800 803 807 809 810 815 815 819 821 823
761 762 765 768 772 776 777 783 788 791 792 797 799 800 803 805 808 811 814 817 817 821
761 762 763 767 769 773 774 781 785 788 791 794 795 797 799 802 806 807 811 813 816 818
760 762 763 765 768 771 773 778 781 783 787 789 792 794 796 798 802 805 807 810 814 815
759 762 764 764 765 771 774 776 775 780 783 788 791 792 795 798 801 803 805 809 812 813
762 763 762 766 769 772 773 774 776 779 783 787 788 791 794 797 800 803 806 806 807 810
762 762 763 765 766 769 772 774 776 780 783 785 788 791 793 796 799 800 802 804 805 807
762 763 764 766 770 772 772 774 778 780 782 784 789 791 794 796 798 800 800 801 804 804
760 761 764 768 771 773 775 776 780 783 785 787 790 792 794 795 796 798 800 800 801 803
Wind_Speed
27 31 26 30 29 26 23 23 21 19 18 18 16 18 18 17 17 12 11 12 10 9
25 25 26 28 27 27 22 16 16 16 16 18 18 15 18 16 14 14 11 10 9 9
25 25 26 26 27 27 24 22 19 18 18 17 18 17 15 14 14 14 11 12 12 11
24 25 24 23 24 26 25 25 22 22 20 19 17 15 15 16 16 14 13 13 10 11
20 21 21 21 23 26 23 19 20 21 19 17 19 19 19 19 17 16 13 11 12 12
18 19 20 21 21 19 21 21 21 22 23 21 21 19 20 19 16 14 12 14 13 13
15 16 17 18 19 19 19 18 21 23 20 19 19 18 16 14 14 15 14 13 12 14
8 9 9 10 13 17 19 20 21 19 18 19 16 16 16 16 15 14 13 12 12 12
7 9 8 8 10 13 20 22 21 19 18 16 17 15 15 14 16 15 13 12 12 11
9 8 9 8 9 13 15 16 15 14 15 15 14 12 12 13 13 12 11 11 11 9
6 9 10 12 12 12 10 10 12 13 12 12 11 12 12 12 12 12 11 9 7 7
5 8 10 11 11 10 11 12 11 12 12 12 12 12 12 13 11 10 8 7 6 4
3 3 4 5 7 7 9 10 9 10 8 8 10 10 11 10 10 9 7 6 7 7
5 6 6 6 5 6 8 10 10 10 9 9 8 9 8 7 6 6 8 8 9 11
Wind_Direction
194 184 186 185 184 187 185 189 189 193 188 188 188 184 186 191 201 204 198 179 191 190
191 189 190 195 195 196 202 186 182 183 188 189 193 198 195 192 198 200 190 185 187 199
201 203 199 204 206 208 209 211 216 213 213 208 204 195 194 190 200 203 189 198 208 229
199 199 204 206 213 218 219 217 220 207 211 203 199 199 199 200 199 206 215 220 225 225
197 201 205 206 213 218 221 210 199 199 204 217 210 206 206 208 213 220 223 221 216 214
209 207 208 214 214 211 208 214 229 221 224 209 203 206 218 223 219 221 217 217 218 214
220 224 223 225 218 220 211 213 215 210 201 211 220 224 221 218 222 213 216 220 214 215
221 228 231 230 234 222 209 207 205 207 213 233 228 223 220 214 210 209 209 207 208 213
172 175 178 190 204 218 216 215 215 227 235 221 221 212 206 206 204 202 200 201 207 211
160 170 178 179 183 198 197 196 193 201 206 208 204 201 198 198 197 198 197 201 206 211
144 155 156 166 173 176 175 176 180 184 188 189 185 185 187 189 190 190 194 194 201 213
151 151 156 158 156 158 162 161 165 171 172 173 171 173 181 185 186 186 186 193 199 213
92 119 127 144 152 154 156 155 156 157 158 163 167 171 182 187 188 182 179 200 239 251
84 88 100 115 110 130 136 138 130 131 128 133 139 139 151 162 175 215 235 232 244 252